Location: Tel Aviv
(32.0670°N, 34.7670°E)
Time: 07:08:17
(UTC+03:00)

ITAMSAT 1 - Visible Passes

Search period start: 29 March 2023 00:00
Search period end: 08 April 2023 00:00
Orbit: 784 x 795 km, 98.8° (Epoch: 28 March)

Date Brightness Start Highest point End Pass type
(mag) Time Alt. Az. Time Alt. Az. Time Alt. Az.
29 Mar 8.5 19:41:57 10° SE 19:46:28 31° ENE 19:51:00 10° N visible
29 Mar 9.6 21:21:53 11° SSW 21:25:50 25° W 21:30:04 10° NW visible
30 Mar 8.4 20:51:49 14° S 20:56:04 51° W 21:01:08 10° NNW visible
31 Mar 7.5 20:21:46 13° SSE 20:26:25 79° ENE 20:31:39 10° N visible
01 Apr 8.2 19:52:06 10° SE 19:56:53 39° ENE 20:01:42 10° N visible
01 Apr 10.0 21:32:41 10° SW 21:36:23 20° W 21:40:06 10° NW visible
02 Apr 9.0 19:23:46 10° ESE 19:27:29 20° ENE 19:31:12 10° NNE visible
02 Apr 8.9 21:02:21 13° SSW 21:06:34 39° W 21:11:27 10° NNW visible
03 Apr 7.7 20:32:17 13° S 20:36:52 82° WSW 20:42:07 10° NNW visible
04 Apr 7.9 20:02:19 10° SSE 20:07:18 49° ENE 20:12:20 10° N visible
04 Apr 10.2 21:43:58 10° SW 21:46:56 15° W 21:49:55 10° WNW visible
05 Apr 8.7 19:33:40 10° ESE 19:37:52 25° ENE 19:42:03 10° NNE visible
05 Apr 9.3 21:12:52 12° SSW 21:17:06 31° W 21:21:42 10° NW visible
06 Apr 8.0 20:42:48 13° S 20:47:21 64° WSW 20:52:33 10° NNW visible
07 Apr 7.7 20:12:44 11° SSE 20:17:44 63° ENE 20:22:54 10° N visible
07 Apr 10.4 21:55:44 10° WSW 21:57:30 12° W 21:59:16 10° WNW visible
